Flag for Israel Weather past 2 weeks in Hadera, Israel

Now
63 °F

Passing clouds.


Feels Like: 63 °F
Forecast: 56 / 68 °F
Wind: 7 mph from Northwest

Location: Dov Airport

Current Time: Mar 4, 2015 at 7:32:38 PM

Latest Report: Mar 4, 2015 at 6:50 PM


Visibility: N/A

Pressure: 30.09 "Hg

Humidity: 73%

Dew point: 54 °F

Location of HaderaLocation

Historic Weather in Hadera — Graph

°F

Hadera temperature yesterday

Maximum temperature yesterday: 64 °F (at 10:50 AM)
Minimum temperature yesterday: 55 °F (at 4:50 AM)
Average temperature yesterday: 61 °F

Past Weeks' High & Low Weather Summary

 TemperatureHumidityPressure
High82 °F (Feb 27, 11:50 AM)88% (Feb 25, 7:50 AM)30.18 "Hg (Feb 25, 7:50 AM)
Low46 °F (Feb 20, 8:50 AM)17% (Feb 27, 11:50 AM)29.65 "Hg (Feb 20, 6:50 AM)
Average61 °F61%29.99 "Hg
* Reported Feb 17 5:50 PM — Mar 4 5:50 PM, Hadera, Weather by CustomWeather, © 2015

Note: Actual official high and low records may vary slightly from our data, if they occured in-between our weather recording intervals... More about our weather records

Advertising

Hadera weather history for previous 24 hours

 ConditionsComfort  
Time TempWeatherWind HumidityBarometerVisibility
5:50 PM
Wed, Mar 4
63 °FPassing clouds.8 mph68%30.09 "HgN/A
4:50 PM64 °FScattered clouds.10 mph68%30.07 "HgN/A
3:50 PM64 °FScattered clouds.9 mph68%30.07 "HgN/A
2:50 PM64 °FSunny.8 mph64%30.07 "Hg10 mi
1:50 PM64 °FPassing clouds.9 mph68%30.09 "HgN/A
12:50 PM63 °FPartly sunny.7 mph77%30.09 "HgN/A
11:50 AM64 °FScattered clouds.9 mph73%30.09 "HgN/A
10:50 AM64 °FPartly sunny.9 mph73%30.12 "HgN/A
9:50 AM63 °FPartly sunny.8 mph73%30.12 "HgN/A
8:50 AM64 °FScattered clouds.6 mph64%30.12 "HgN/A
7:50 AM63 °FScattered clouds.9 mph68%30.12 "HgN/A
6:50 AM63 °FPartly sunny.10 mph73%30.09 "HgN/A
5:50 AM61 °FPassing clouds.8 mph77%30.07 "HgN/A
10:50 PM
Tue, Mar 3
63 °FPassing clouds.14 mph68%30.12 "HgN/A
9:50 PM63 °FPassing clouds.10 mph73%30.12 "HgN/A
8:50 PM61 °FPassing clouds.9 mph77%30.12 "HgN/A
7:50 PM61 °FPassing clouds.8 mph72%30.09 "HgN/A
Weather by CustomWeather, © 2015

See weather overviewHow to use our weather pages